Cosmos 1975 - Orbit

View from above orbital plane
View from above orbital plane
View from above satellite
View from above satellite

Ground track
Ground track

The orbit data is extracted from the following two-line orbital elements,

1 19573U 88093A   13138.50147945  .00002986  00000-0  24827-3 0  8703
2 19573 082.5238 342.4147 0015548 320.3976 039.6110 14.98298587336062
Epoch (UTC): 18 May 2013 12:02:07
Eccentricity: 0.0015548
inclination: 82.5238°
perigee height: 561 km
apogee height: 583 km
right ascension of ascending node: 342.4147°
argument of perigee: 320.3976°
revolutions per day: 14.98298587
mean anomaly at epoch: 39.6110°
orbit number at epoch: 33606

The dashed part of the orbit path shows where the satellite is in the earth's shadow,  

Developed and maintained by Chris Peat, Heavens-Above GmbH. Please read the updated FAQ before sending e-mail. Imprint. DLR